Location: La Trinit�
(48.1620°N, 3.4512°W)
Time: 03:25:12
(UTC+00:00)

SJ 16-02 - Pass Details

Date: 08 May 2021
Orbit: 606 x 616 km, 75.0° (Epoch: 13 June)

Event Time Altitude Azimuth Distance (km) Brightness Sun altitude
Exits shadow 23:52:11 - 263° (W) 2,021 4.0 -24.4°
Reaches altitude 10° 23:52:20 10° 264° (W) 1,981 3.9 -24.4°
Maximum altitude 23:55:21 18° 307° (NW) 1,540 3.8 -24.4°
Drops below altitude 10° 23:58:23 10° 351° (N) 1,990 5.0 -24.4°
Sets 00:01:18 0° 10° (N) 2,900 6.1 -24.4°
